World > North America > United States > Illinois

Hourly St. Morgan, IL Regional Weather

Feedback E-mail the Weather

Quick WX

St. Morgan, IL Weather Maps

°F °C°F °C
Saint Morgan Weather Map
UTC Time: 6/27/2022, 20:43
Your Time:

St. Morgan, IL Regional Weather

Expires:202206272100;;292051
ASUS43 KLOT 272009
RWRIL 

ILLINOIS REGIONAL WEATHER ROUNDUP
NATIONAL WEATHER SERVICE CHICAGO/ROMEOVILLE IL
300 PM CDT MON JUN 27 2022

NOTE: "FAIR" INDICATES FEW OR NO CLOUDS BELOW 12,000 FEET WITH NO
SIGNIFICANT WEATHER AND/OR OBSTRUCTIONS TO VISIBILITY.

* THESE STATIONS ARE NOT UNDER NWS QUALITY CONTROL. THEY ALSO MAY NOT
  REPORT WEATHER SUCH AS PRECIPITATION OR FOG.


ILZ064>066-069>071-074>076-080>082-084>086-088>090-092>094-272100-
SOUTH-CENTRAL ILLINOIS
  
CITY           SKY/WX    TMP DP  RH WIND       PRES   REMARKS
CARBONDALE     SUNNY     82  48  30 N12       30.23F HX  81           
CAIRO*         SUNNY     80  54  40 N10       30.22F HX  80           
EFFINGHAM*     MOSUNNY   77  53  42 NW6       30.25F                  
MARION         MOSUNNY   79  52  38 NE13      30.23F                  
MT. VERNON     SUNNY    N/A N/A N/A CALM      30.24S                  
CENTRALIA*     SUNNY     77  50  38 NW6G17    30.25S                  
SALEM*         SUNNY     79  52  38 N7        30.25S                  
METROPOLIS*    SUNNY     79  51  38 N8        30.23F                  
$$


SKY/WX - Weather  TMP - Temperature  DP - Dew Point  RH - Humidity
WIND - Wind Direction/Speed PRES - Barometric Pressure VSB - Visibility
WCI - Wind Chill Index E13G22 Wind - East Wind 13 mph/Gusts of 22 mph

Trending Headlines

St. Morgan Radar Loop



St. Morgan Quick Facts


National Two Day Weather Forecast


E-mail the St. Morgan Weather Forecast

Voice your opinion or tell us about page issues...